Tracking 33176 objects as of 12-Feb-2026
HD Live streaming from Space Station
objects crossing your sky now

STARLINK-30364

Track STARLINK-30364 now!
10-day predictions
STARLINK-30364 is classified as:


NORAD ID: 57741
Int'l Code: 2023-131K
Perigee: 564.8 km
Apogee: 567.7 km
Inclination: 43.0 °
Period: 95.8 minutes
Semi major axis: 6937 km
RCS: Unknown
Launch date: September 1, 2023
Source: United States (US)
Launch site: AIR FORCE EASTERN TEST RANGE (AFETR)
Your satellite tracking list
Your tracking list is empty




NASA's NSSDC Master Catalog

Two Line Element Set (TLE):
1 57741U 23131K   26043.15794583 -.00002721  00000-0 -18643-3 0  9990
2 57741  43.0048 310.5150 0002042 249.0922 110.9702 15.02530133136087
Source of the keplerian elements: AFSPC